Rome, GA

11:40 AM EDT on September 22, 2017 (GMT -0400)
Russell

Weather History for KRMG - October, 2012

Change the Weather History Date:

Monday, October 29, 2012

  Actual Average Record
Temperature  
Mean Temperature 49 °F 57 °F  
Max Temperature 57 °F 70 °F 86 °F (2016)
Min Temperature 41 °F 44 °F 28 °F (2001)
Degree Days  
Heating Degree Days 16 9  
Month to date heating degree days 144  
Since 1 July heating degree days 158  
Cooling Degree Days 0 1  
Month to date cooling degree days 45  
Year to date cooling degree days 1635  
Moisture  
Dew Point 29 °F    
Average Humidity 50    
Maximum Humidity 70    
Minimum Humidity 28    
Precipitation  
Precipitation 0.00 in 0.12 in 0.68 in (2002)
Month to date precipitation 3.62  
Year to date precipitation 42.45  
Sea Level Pressure  
Sea Level Pressure 29.91 in    
Wind  
Wind Speed 11 mph (NW)    
Max Wind Speed 18 mph    
Max Gust Speed 30 mph    
Visibility 10 miles    
Events      
T = Trace of Precipitation, MM = Missing Value Source: NWS Daily Summary

Daily Weather History Graph

Daily Weather History Graph

Search for Another Location

Airport or City:

Trip Planner

Search our weather history database for the weather conditions in past years. The results will help you decide how hot, cold, wet, or windy it might be!

Date:

Astronomy

Oct. 29, 2012 Rise Set
Actual Time 7:58 AM EDT 6:49 PM EDT
Civil Twilight 7:32 AM EDT 7:15 PM EDT
Nautical Twilight 7:02 AM EDT 7:45 PM EDT
Astronomical Twilight 6:33 AM EDT 8:14 PM EDT
Moon 6:43 PM EDT (10/29) 7:46 AM EDT (10/29)
Length of Visible Light 11h 43m
Length of Day
10h 51m
Full, 100% of the Moon is Illuminated
Oct 29
Full
Oct 29
Full
Nov 6
Last Quarter
Nov 13
New
Nov 20
First Quarter

Hourly Weather History & Observations

Time (EDT) Temp. Windchill Dew Point Humidity Pressure Visibility Wind Dir Wind Speed Gust Speed Precip Events Conditions
12:53 AM 46.9 °F - 36.0 °F 66% 29.95 in 10.0 mi North 8.1 mph - N/A   Scattered Clouds
1:53 AM 46.0 °F 41.9 °F 35.1 °F 66% 29.94 in 10.0 mi NNW 8.1 mph - N/A   Clear
2:53 AM 46.0 °F 41.0 °F 34.0 °F 63% 29.94 in 10.0 mi NNW 10.4 mph 18.4 mph N/A   Clear
3:53 AM 45.0 °F - 33.1 °F 63% 29.94 in 10.0 mi North - - N/A   Clear
4:53 AM 44.1 °F 38.1 °F 33.1 °F 65% 29.94 in 10.0 mi NW 11.5 mph - N/A   Mostly Cloudy
5:53 AM 43.0 °F 36.8 °F 32.0 °F 65% 29.94 in 10.0 mi NW 11.5 mph - N/A   Overcast
6:53 AM 42.1 °F 36.6 °F 32.0 °F 67% 29.95 in 10.0 mi NNW 9.2 mph - N/A   Clear
7:53 AM 41.0 °F 34.7 °F 32.0 °F 70% 29.96 in 10.0 mi NW 10.4 mph - N/A   Clear
8:53 AM 43.0 °F 36.4 °F 32.0 °F 65% 29.96 in 10.0 mi NNW 12.7 mph - N/A   Clear
9:53 AM 46.0 °F 40.2 °F 32.0 °F 58% 29.97 in 10.0 mi NNW 12.7 mph - N/A   Clear
10:53 AM 48.9 °F - 30.0 °F 48% 29.96 in 10.0 mi NW 18.4 mph 29.9 mph N/A   Clear
11:53 AM 51.1 °F - 30.9 °F 46% 29.96 in 10.0 mi NW 12.7 mph 23.0 mph N/A   Clear
12:53 PM 52.0 °F - 30.9 °F 45% 29.95 in 10.0 mi NW 15.0 mph 24.2 mph N/A   Partly Cloudy
1:53 PM 53.1 °F - 28.9 °F 40% 29.94 in 10.0 mi NNW 15.0 mph 25.3 mph N/A   Partly Cloudy
2:53 PM 55.0 °F - 28.9 °F 37% 29.91 in 10.0 mi NW 18.4 mph 28.8 mph N/A   Partly Cloudy
3:53 PM 55.9 °F - 27.0 °F 33% 29.88 in 10.0 mi NNW 15.0 mph 26.5 mph N/A   Clear
4:53 PM 55.0 °F - 27.0 °F 34% 29.87 in 10.0 mi NW 17.3 mph 25.3 mph N/A   Partly Cloudy
5:53 PM 53.1 °F - 26.1 °F 35% 29.86 in 10.0 mi NW 12.7 mph 21.9 mph N/A   Clear
6:53 PM 50.0 °F - 26.1 °F 39% 29.86 in 10.0 mi NW 10.4 mph 20.7 mph N/A   Clear
7:53 PM 48.0 °F - 25.0 °F 41% 29.87 in 10.0 mi WNW 6.9 mph - N/A   Clear
8:53 PM 48.0 °F - 21.0 °F 34% 29.86 in 10.0 mi NW 9.2 mph - N/A   Clear
9:53 PM 48.0 °F - 19.9 °F 33% 29.85 in 10.0 mi NW 13.8 mph 20.7 mph N/A   Clear
10:53 PM 48.0 °F - 23.0 °F 37% 29.83 in 10.0 mi NW 11.5 mph 23.0 mph N/A   Clear
11:53 PM 46.9 °F - 26.1 °F 44% 29.82 in 10.0 mi NW 11.5 mph 20.7 mph N/A   Clear